sat.trackr.live / text

‹ back to catalog

FORMOSAT-8A

NORAD 66666 · 2025-276A

PAYLOAD ACTIVE UNKNOWN

§ Identity

Operator
Country
ROC
Launch date
2025-11-28
Launch site
AFWTR
Launch vehicle
Mass (kg)
RCS (m²)

External: N2YO · Heavens-Above · Gunter

§ Orbital elements

Epoch: 2026-09-20T22:39:16.996608Z

Period
95.93 min
Inclination
97.6540°
Eccentricity
0.0005159
Mean motion
15.01079194 rev/d
Perigee alt
560.0 km
Apogee alt
567.1 km
Semi-major
6,941.7 km
B*
8.3595e-5
RAAN
336.7506°
Arg perigee
310.3343°
Mean anomaly
49.7430°
Rev number
4,442

§ Raw data

FORMOSAT-8A1 66666U 25276A   26263.94394672  .00001010  00000+0  83595-4 0  99902 66666  97.6540 336.7506 0005159 310.3343  49.7430 15.01079194 44428

JSON: /api/v1/satellites/66666 · /tle

For live sub-satellite position, see the globe view (requires WebGL).

§ Visibility from observer

Set your observer location to see the next 7 days of passes ≥ 10°. The values pass through the URL so the page stays shareable.

No JS? Fill the form by hand. The geolocation button needs JavaScript.